Voltar ao catálogo

GALILEO 22

2C8

AtivoNavegaçãoMEO
NORAD 43058·PAYLOAD·🇪🇺 EU

Lançado Dec 12, 2017 de Guiana Space Centre

Loading…

Próximas Passagens (próximas 24 horas)

TLE

AtualizadoSource: CelesTrak SupGP

Época: Sep 14, 2026, 23:59 UTC

1 43058C 17079D   26257.99979167  .00000000  00000+0  00000+0 0  2578
2 43058  55.0517 219.0318 0005003 286.1594 130.1480  1.70474123    19

Acompanhe GALILEO 22 em tempo real com AllMySat

Download on the App Store